Location: Ripley
(48.3812°N, 115.4473°W)
Time: 11:51:45
(UTC+00:00)

RS-15 - Pass Details

Date: 30 June 2022
Orbit: 1881 x 2163 km, 64.8° (Epoch: 13 August)

Event Time Altitude Azimuth Distance (km) Brightness Sun altitude
Rises 08:51:07 0° 322° (NW) 5,700 11.0 -17.0°
Reaches altitude 10° 08:54:54 10° 315° (NW) 4,688 10.4 -16.8°
Maximum altitude 09:05:45 39° 253° (WSW) 2,889 8.6 -16.2°
Enters shadow 09:13:19 20° 199° (SSW) 3,819 8.9 -15.8°
